History for KNYNEWYO585

Bryant Park, New York, NY — Current Conditions
Daily Summary for October 20, 2018
  Current: High: Low: Average:
Temperature: 62.6°F 62.6°F 57.0°F 59.8°F
Dew Point: 44.2°F 53.1°F 43.7°F 48.8°F
Humidity: 51% 84% 51% 70%
Wind Speed: 3.4mph 26.8mph - 2.8mph
Wind Gust: 7.4mph 29.5mph - -
Wind: South - - SE
Pressure: 29.69in 29.96in 29.69in -
Precipitation: 0.00in      
Solar Radiation: 99 watts/m^2      
UV Index: 2.0      
Statistics for the rest of the month
    High: Low: Average:
Temperature:   81.9°F 44.4°F 65.2°F
Dew Point:   73.0°F 10.9°F 52.6°F
Humidity:   94.0% 19.0% 67.3%
Wind Speed:   43.6mph from the NNE - 2.5mph
Wind Gust:   67.1mph from the WSW - -
Wind:   - - SE
Pressure:   30.48in 29.52in -
Precipitation:   0.12in    
KNYNEWYO585 Weather Graph
Tabular Data for October 20, 2018
Time Temp. Dew Point Pressure Wind Gust Humidity Rainfall Solar Radiation
00:04 59.4°F 43.7°F 29.94in 7.4mph 56% 0in 0.00 watts/m^2
00:09 59.4°F 43.7°F 29.95in 0mph 56% 0in 0.00 watts/m^2
00:14 59.4°F 43.7°F 29.94in 7.4mph 56% 0in 0.00 watts/m^2
00:19 59.4°F 43.7°F 29.95in 14.8mph 56% 0in 0.00 watts/m^2
00:24 59.4°F 44.2°F 29.94in 0mph 57% 0in 0.00 watts/m^2
00:29 59.4°F 44.2°F 29.93in 7.4mph 57% 0in 0.00 watts/m^2
00:34 59.4°F 44.2°F 29.93in 7.4mph 57% 0in 0.00 watts/m^2
00:39 59.4°F 44.2°F 29.93in 0mph 57% 0in 0.00 watts/m^2
00:44 59.4°F 44.2°F 29.93in 0mph 57% 0in 0.00 watts/m^2
00:49 59.4°F 44.2°F 29.92in 14.8mph 57% 0in 0.00 watts/m^2
00:54 59.4°F 44.2°F 29.92in 0mph 57% 0in 0.00 watts/m^2
00:59 59.4°F 44.6°F 29.92in 7.4mph 58% 0in 0.00 watts/m^2
01:04 59.4°F 44.2°F 29.92in 7.4mph 57% 0in 0.00 watts/m^2
01:09 59.4°F 44.2°F 29.91in 7.4mph 57% 0in 0.00 watts/m^2
01:14 59.4°F 44.2°F 29.91in 7.4mph 57% 0in 0.00 watts/m^2
01:19 59.4°F 44.6°F 29.91in 0mph 58% 0in 0.00 watts/m^2
01:24 59.4°F 45.1°F 29.90in 7.4mph 59% 0in 0.00 watts/m^2
01:29 59.4°F 44.6°F 29.90in 7.4mph 58% 0in 0.00 watts/m^2
01:34 59.4°F 44.6°F 29.91in 0mph 58% 0in 0.00 watts/m^2
01:39 59.4°F 44.6°F 29.89in 0mph 58% 0in 0.00 watts/m^2
01:44 59.4°F 44.6°F 29.90in 0mph 58% 0in 0.00 watts/m^2
01:49 59.4°F 45.1°F 29.89in 7.4mph 59% 0in 0.00 watts/m^2
01:54 59.4°F 45.1°F 29.89in 0mph 59% 0in 0.00 watts/m^2
01:59 59.4°F 45.1°F 29.90in 7.4mph 59% 0in 0.00 watts/m^2
02:04 59.4°F 45.1°F 29.90in 0mph 59% 0in 0.00 watts/m^2
02:09 59.4°F 45.5°F 29.90in 0mph 60% 0in 0.00 watts/m^2
02:14 59.4°F 45.5°F 29.89in 14.8mph 60% 0in 0.00 watts/m^2
02:19 59.2°F 45.3°F 29.89in 0mph 60% 0in 0.00 watts/m^2
02:24 59.2°F 45.3°F 29.89in 22.1mph 60% 0in 0.00 watts/m^2
02:29 59.2°F 45.3°F 29.89in 7.4mph 60% 0in 0.00 watts/m^2
02:34 59.2°F 45.9°F 29.89in 14.8mph 61% 0in 0.00 watts/m^2
02:39 59.2°F 46.2°F 29.88in 7.4mph 62% 0in 0.00 watts/m^2
02:44 59°F 46.9°F 29.88in 0mph 64% 0in 0.00 watts/m^2
02:49 58.8°F 46.8°F 29.88in 0mph 64% 0in 0.00 watts/m^2
02:54 58.8°F 47.1°F 29.89in 0mph 65% 0in 0.00 watts/m^2
02:59 58.6°F 47.3°F 29.88in 7.4mph 66% 0in 0.00 watts/m^2
03:04 58.6°F 47.3°F 29.88in 7.4mph 66% 0in 0.00 watts/m^2
03:09 58.5°F 47.1°F 29.88in 7.4mph 66% 0in 0.00 watts/m^2
03:14 58.3°F 47.8°F 29.88in 7.4mph 68% 0in 0.00 watts/m^2
03:19 58.3°F 48.2°F 29.87in 7.4mph 69% 0in 0.00 watts/m^2
03:24 58.1°F 48.4°F 29.87in 7.4mph 70% 0in 0.00 watts/m^2
03:29 58.1°F 48.7°F 29.87in 0mph 71% 0in 0.00 watts/m^2
03:34 57.9°F 48.6°F 29.85in 0mph 71% 0in 0.00 watts/m^2
03:39 57.7°F 48.7°F 29.85in 0mph 72% 0in 0.00 watts/m^2
03:44 57.7°F 49.1°F 29.85in 7.4mph 73% 0in 0.00 watts/m^2
03:49 57.6°F 48.9°F 29.85in 0mph 73% 0in 0.00 watts/m^2
03:54 57.6°F 48.9°F 29.85in 0mph 73% 0in 0.00 watts/m^2
03:59 57.4°F 49.3°F 29.85in 7.4mph 74% 0in 0.00 watts/m^2
04:04 57.4°F 49.3°F 29.85in 7.4mph 74% 0in 0.00 watts/m^2
04:09 57.4°F 49.3°F 29.83in 7.4mph 74% 0in 0.00 watts/m^2
04:14 57.4°F 48.9°F 29.85in 7.4mph 73% 0in 0.00 watts/m^2
04:19 57.4°F 49.3°F 29.84in 7.4mph 74% 0in 0.00 watts/m^2
04:24 57.4°F 49.3°F 29.84in 14.8mph 74% 0in 0.00 watts/m^2
04:29 57.6°F 49.5°F 29.83in 7.4mph 74% 0in 0.00 watts/m^2
04:34 57.6°F 49.5°F 29.83in 14.8mph 74% 0in 0.00 watts/m^2
04:39 57.6°F 49.5°F 29.83in 0mph 74% 0in 0.00 watts/m^2
04:44 57.7°F 49.5°F 29.83in 7.4mph 74% 0in 0.00 watts/m^2
04:49 57.7°F 49.5°F 29.83in 7.4mph 74% 0in 0.00 watts/m^2
04:54 57.7°F 49.8°F 29.82in 7.4mph 75% 0.02in 0.00 watts/m^2
04:59 57.7°F 50.2°F 29.82in 0mph 76% 0.02in 0.00 watts/m^2
05:04 57.7°F 50.5°F 29.82in 0mph 77% 0in 0.00 watts/m^2
05:09 57.7°F 50.5°F 29.82in 7.4mph 77% 0in 0.00 watts/m^2
05:14 57.6°F 50.7°F 29.82in 7.4mph 78% 0in 0.00 watts/m^2
05:19 57.6°F 51.1°F 29.81in 0mph 79% 0in 0.00 watts/m^2
05:24 57.6°F 51.1°F 29.82in 0mph 79% 0in 0.00 watts/m^2
05:29 57.4°F 51.6°F 29.80in 7.4mph 81% 0in 0.00 watts/m^2
05:34 57.2°F 51.1°F 29.82in 14.8mph 80% 0in 0.00 watts/m^2
05:39 57.2°F 51.1°F 29.81in 14.8mph 80% 0in 0.00 watts/m^2
05:44 57.2°F 50.7°F 29.81in 14.8mph 79% 0in 0.00 watts/m^2
05:49 57°F 50.5°F 29.80in 14.8mph 79% 0in 0.00 watts/m^2
05:54 57°F 50.5°F 29.81in 7.4mph 79% 0in 0.00 watts/m^2
05:59 57.2°F 50.7°F 29.81in 7.4mph 79% 0in 0.00 watts/m^2
06:04 57.2°F 50.4°F 29.80in 0mph 78% 0in 0.00 watts/m^2
06:09 57.2°F 50.7°F 29.80in 7.4mph 79% 0in 0.00 watts/m^2
06:14 57.4°F 50.9°F 29.79in 0mph 79% 0in 0.00 watts/m^2
06:19 57.4°F 50.9°F 29.80in 7.4mph 79% 0in 0.00 watts/m^2
06:24 57.4°F 50.9°F 29.80in 0mph 79% 0in 0.00 watts/m^2
06:29 57.6°F 51.1°F 29.80in 7.4mph 79% 0in 0.00 watts/m^2
06:34 57.6°F 51.1°F 29.80in 22.1mph 79% 0in 0.00 watts/m^2
06:39 57.6°F 51.1°F 29.79in 7.4mph 79% 0in 0.00 watts/m^2
06:44 57.6°F 51.4°F 29.80in 7.4mph 80% 0in 0.00 watts/m^2
06:48 57.6°F 51.4°F 29.80in 7.4mph 80% 0in 0.00 watts/m^2
06:54 57.7°F 51.6°F 29.80in 14.8mph 80% 0in 0.00 watts/m^2
06:59 57.7°F 51.6°F 29.80in 0mph 80% 0in 0.00 watts/m^2
07:04 57.7°F 51.6°F 29.80in 7.4mph 80% 0in 0.00 watts/m^2
07:09 57.7°F 51.6°F 29.80in 7.4mph 80% 0in 0.00 watts/m^2
07:14 57.7°F 51.6°F 29.80in 7.4mph 80% 0in 0.00 watts/m^2
07:19 57.7°F 51.6°F 29.80in 14.8mph 80% 0in 0.00 watts/m^2
07:24 57.7°F 51.6°F 29.80in 7.4mph 80% 0in 0.00 watts/m^2
07:29 57.7°F 52°F 29.80in 7.4mph 81% 0in 0.00 watts/m^2
07:34 57.7°F 52°F 29.81in 7.4mph 81% 0in 0.34 watts/m^2
07:39 57.6°F 51.8°F 29.81in 14.8mph 81% 0in 0.85 watts/m^2
07:44 57.6°F 51.8°F 29.81in 14.8mph 81% 0in 0.37 watts/m^2
07:49 57.6°F 51.8°F 29.80in 14.8mph 81% 0in 0.69 watts/m^2
07:54 57.6°F 51.8°F 29.81in 7.4mph 81% 0in 2.02 watts/m^2
07:59 57.6°F 51.8°F 29.81in 14.8mph 81% 0in 1.54 watts/m^2
08:04 57.6°F 52.2°F 29.81in 7.4mph 82% 0in 3.43 watts/m^2
08:09 57.6°F 52.2°F 29.80in 7.4mph 82% 0in 2.37 watts/m^2
08:14 57.6°F 52.2°F 29.81in 0mph 82% 0in 4.28 watts/m^2
08:19 57.6°F 52.2°F 29.81in 7.4mph 82% 0in 4.23 watts/m^2
08:24 57.7°F 52.3°F 29.80in 0mph 82% 0in 6.16 watts/m^2
08:29 57.7°F 52.3°F 29.80in 7.4mph 82% 0in 6.37 watts/m^2
08:34 57.7°F 52.3°F 29.81in 7.4mph 82% 0in 7.19 watts/m^2
08:39 57.7°F 52.3°F 29.81in 7.4mph 82% 0in 7.52 watts/m^2
08:44 57.7°F 52.3°F 29.81in 0mph 82% 0in 5.96 watts/m^2
08:49 57.9°F 52.9°F 29.81in 7.4mph 83% 0in 13.01 watts/m^2
08:54 57.9°F 52.9°F 29.80in 0mph 83% 0in 25.28 watts/m^2
08:59 57.9°F 52.9°F 29.80in 7.4mph 83% 0in 24.11 watts/m^2
09:04 57.9°F 52.9°F 29.80in 0mph 83% 0in 18.72 watts/m^2
09:09 57.9°F 53.1°F 29.80in 14.8mph 84% 0in 14.04 watts/m^2
09:14 57.9°F 52.9°F 29.80in 0mph 83% 0in 24.99 watts/m^2
09:19 57.9°F 52.9°F 29.80in 0mph 83% 0in 20.83 watts/m^2
09:24 57.9°F 52.9°F 29.79in 7.4mph 83% 0in 40.22 watts/m^2
09:29 57.9°F 52.9°F 29.80in 7.4mph 83% 0in 23.90 watts/m^2
09:34 57.9°F 53.1°F 29.79in 0mph 84% 0in 26.52 watts/m^2
09:39 57.9°F 53.1°F 29.79in 7.4mph 84% 0in 27.14 watts/m^2
09:44 57.9°F 52.9°F 29.79in 0mph 83% 0in 20.94 watts/m^2
09:49 57.9°F 52.9°F 29.79in 22.1mph 83% 0in 36.00 watts/m^2
09:54 57.9°F 52.9°F 29.78in 7.4mph 83% 0in 44.70 watts/m^2
09:59 57.9°F 52.9°F 29.78in 14.8mph 83% 0in 48.45 watts/m^2
10:04 57.9°F 52.9°F 29.78in 7.4mph 83% 0in 56.63 watts/m^2
10:09 57.9°F 52.5°F 29.78in 0mph 82% 0in 56.82 watts/m^2
10:14 57.9°F 52.5°F 29.78in 7.4mph 82% 0in 58.23 watts/m^2
10:19 58.1°F 52.3°F 29.77in 0mph 81% 0in 55.12 watts/m^2
10:24 58.1°F 52.3°F 29.77in 7.4mph 81% 0in 70.23 watts/m^2
10:29 58.3°F 52.2°F 29.76in 0mph 80% 0in 55.44 watts/m^2
10:34 58.5°F 52.3°F 29.77in 14.8mph 80% 0in 76.30 watts/m^2
10:39 58.5°F 51.6°F 29.77in 7.4mph 78% 0in 69.18 watts/m^2
10:44 58.6°F 51.4°F 29.77in 7.4mph 77% 0in 53.54 watts/m^2
10:49 58.6°F 51.4°F 29.77in 7.4mph 77% 0in 74.40 watts/m^2
10:54 58.8°F 51.3°F 29.77in 0mph 76% 0in 68.95 watts/m^2
10:59 58.8°F 51.3°F 29.77in 7.4mph 76% 0in 56.97 watts/m^2
11:04 59°F 51.1°F 29.77in 0mph 75% 0in 52.09 watts/m^2
11:09 59°F 50.7°F 29.77in 7.4mph 74% 0in 94.06 watts/m^2
11:14 59.2°F 50.5°F 29.77in 22.1mph 73% 0in 56.18 watts/m^2
11:19 59.2°F 50.2°F 29.77in 7.4mph 72% 0in 91.82 watts/m^2
11:24 59.4°F 49.6°F 29.77in 14.8mph 70% 0in 73.02 watts/m^2
11:29 59.5°F 49.8°F 29.77in 0mph 70% 0in 84.23 watts/m^2
11:34 59.7°F 49.1°F 29.76in 0mph 68% 0in 91.82 watts/m^2
11:39 59.9°F 48.2°F 29.76in 7.4mph 65% 0in 106.58 watts/m^2
11:44 60.1°F 47.8°F 29.76in 29.5mph 64% 0in 73.06 watts/m^2
11:49 60.3°F 48°F 29.76in 0mph 64% 0in 59.55 watts/m^2
11:54 60.3°F 48°F 29.76in 0mph 64% 0in 53.07 watts/m^2
11:59 60.3°F 48.6°F 29.76in 7.4mph 65% 0in 43.74 watts/m^2
12:04 60.3°F 48.9°F 29.76in 7.4mph 66% 0in 92.78 watts/m^2
12:09 60.3°F 48.6°F 29.76in 7.4mph 65% 0in 73.68 watts/m^2
12:14 60.3°F 48.9°F 29.75in 14.8mph 66% 0in 103.80 watts/m^2
12:19 60.3°F 48.6°F 29.75in 0mph 65% 0in 106.43 watts/m^2
12:24 60.3°F 48°F 29.75in 7.4mph 64% 0in 85.61 watts/m^2
12:29 60.3°F 47.7°F 29.75in 0mph 63% 0in 83.73 watts/m^2
12:34 60.4°F 47.5°F 29.75in 0mph 62% 0in 70.95 watts/m^2
12:39 60.6°F 47.5°F 29.75in 0mph 62% 0in 99.03 watts/m^2
12:44 60.8°F 47.3°F 29.74in 0mph 61% 0in 61.64 watts/m^2
12:49 61°F 47.5°F 29.74in 0mph 61% 0in 50.60 watts/m^2
12:54 61.2°F 47.1°F 29.74in 14.8mph 60% 0in 49.09 watts/m^2
12:59 61.2°F 47.1°F 29.75in 0mph 60% 0in 80.94 watts/m^2
13:04 61°F 46.6°F 29.74in 0mph 59% 0in 82.31 watts/m^2
13:09 61°F 46.6°F 29.73in 0mph 59% 0in 79.01 watts/m^2
13:14 61.2°F 46.8°F 29.73in 0mph 59% 0in 97.07 watts/m^2
13:19 61.2°F 46.2°F 29.73in 0mph 58% 0in 80.26 watts/m^2
13:24 61.2°F 45.3°F 29.72in 7.4mph 56% 0in 47.85 watts/m^2
13:29 61.2°F 45.9°F 29.73in 0mph 57% 0in 107.68 watts/m^2
13:34 61.3°F 46.4°F 29.72in 7.4mph 58% 0in 403.31 watts/m^2
13:39 61.3°F 45.5°F 29.72in 0mph 56% 0in 88.52 watts/m^2
13:44 61.5°F 45.3°F 29.72in 0mph 55% 0in 104.22 watts/m^2
13:49 61.5°F 45.3°F 29.72in 7.4mph 55% 0in 61.77 watts/m^2
13:54 61.5°F 45.7°F 29.72in 0mph 56% 0in 73.59 watts/m^2
13:59 61.5°F 45.3°F 29.71in 0mph 55% 0in 69.50 watts/m^2
14:04 61.5°F 45.7°F 29.70in 0mph 56% 0in 93.89 watts/m^2
14:09 61.7°F 45°F 29.71in 7.4mph 54% 0in 83.49 watts/m^2
14:14 61.9°F 44.6°F 29.70in 7.4mph 53% 0in 66.24 watts/m^2
14:19 61.9°F 45.5°F 29.70in 0mph 55% 0in 309.01 watts/m^2
14:24 61.9°F 44.6°F 29.70in 0mph 53% 0in 85.54 watts/m^2
14:29 62.1°F 44.8°F 29.70in 0mph 53% 0in 91.63 watts/m^2
14:34 62.2°F 45°F 29.69in 0mph 53% 0in 98.33 watts/m^2
14:39 62.2°F 45°F 29.70in 0mph 53% 0in 205.24 watts/m^2
14:44 62.4°F 44.6°F 29.70in 14.8mph 52% 0in 110.04 watts/m^2
14:49 62.6°F 44.2°F 29.70in 0mph 51% 0in 83.38 watts/m^2
Comma Delimited File
Powered by Weather Underground, Inc.